Погода в Петропавловске-Камчатском

Россия / Камчатский край     53°01′26″N   158°38′36″E
темп.,
°C
ветер,
м/с
пор.,
м/с
влажн.,
%
обл.,
%
осадки,
мм/ч
давл.,
гПа
погр.,
м
15 мая, сб
сб1500:00+5зсз33705 0.0 101964
03:00+5зсз44704 0.0 102049
06:00+4зсз45720 0.0 102063
09:00+7зсз45580 0.0 1022293
12:00+9зюз33480 0.0 1022604
15:00+9ю44480 0.0 1021549
18:00+9ю44520 0.0 1021277
21:00+6юв22660 0.0 102279
16 мая, вс
вс1600:00+6в11700 0.0 102343
03:00+5в22778 0.0 102220
06:00+4вюв227619 0.0 102216
09:00+6вюв2171100 0.0 1022167
12:00+7вюв3366100 0.0 1021306
15:00+7вюв4468100 0.0 1020362
18:00+5ююв5668100 0.0 1019325
21:00+3ю6979100 0.0 1019383
17 мая, пн
пн1700:00+2ююв4590100 0.6 1018319
03:00+2ююв569196 0.5 1017409
06:00+2ю999379 0.5 1015418
09:00+2ю7792100 0.0 1013485
12:00+3ю8788100 0.1 1012498
15:00+2ю121295100 0.1 1010526
18:00+2ю9996100 0.3 1008412
21:00+2ююв4599100 1.3 1008275
18 мая, вт
вт1800:00+2зсз119799 1.6 1006263
03:00+2с1296100 0.0 1005277
06:00+2з119195 0.1 1005225
09:00+4юз127940 0.0 1005383
12:00+7зюз46675 0.0 1005634
15:00+10з7115316 0.0 10051023
18:00+10зсз10125531 0.0 1006744
21:00+9зсз69605 0.0 1007353
19 мая, ср
ср1900:00+8зсз576794 0.0 1008110
03:00+8зсз5770100 0.0 1008105
06:00+8зсз466998 0.0 1008100
09:00+10з455637 0.0 1008247
12:00+12юз345098 0.0 1007453
15:00+12ююз3553100 0.0 1006468
18:00+13з375260 0.0 1006483
21:00+12з125912 0.0 100660